Dewpoint
56 56 55 55 54 55 55 55 55 55 56 56 56 56 56 56 56 56 56 56 56 56 55 55 55 55 55 54 54 55 56 52 51 48 45 39 47 50 62 59 63 64 63 62 61 58 57 55 55 53 42 39 39 46 58 64 70 64 60 59 56 57 56 59 59 61 61 60 63 64 65 63 62 65 66 65 63 63 62 62 64 64 65 66 67 67 68 68
55 55 55 55 55 55 55 55 55 55 55 56 55 55 56 56 56 56 56 55 56 55 55 55 55 55 55 55 54 55 55 52 48 48 44 46 55 56 60 61 65 67 65 61 56 54 55 52 51 46 40 38 50 46 63 64 67 61 59 58 56 57 60 64 61 63 61 62 64 65 67 64 63 64 65 61 60 61 61 62 64 64 65 66 67 67 67 68
56 56 55 55 55 55 55 55 55 55 55 55 55 55 55 56 55 55 55 55 55 55 55 55 55 54 55 55 55 57 54 48 48 39 26 55 59 60 59 62 68 66 54 55 55 49 47 49 48 45 43 49 49 50 59 64 64 63 58 55 56 59 63 62 62 63 65 64 64 65 66 65 64 65 66 60 60 61 60 61 63 63 64 65 66 67 67 68
55 55 55 55 55 55 55 55 55 55 55 55 55 55 55 55 55 55 55 55 55 54 54 54 54 55 55 55 56 54 51 50 29 31 44 61 66 60 62 62 67 67 40 45 46 44 44 46 46 45 46 49 54 58 56 64 61 63 59 57 59 61 62 63 63 64 65 65 65 65 65 64 67 66 64 60 58 59 61 62 62 63 64 65 66 66 67 67
55 55 55 55 55 55 55 55 55 55 55 55 55 55 55 55 55 55 55 55 55 55 55 55 54 55 55 56 56 54 51 12 9 43 48 70 70 65 64 64 65 55 39 41 40 42 44 43 44 46 48 45 54 57 60 64 62 63 60 60 61 64 62 62 62 63 65 67 65 65 63 64 68 63 60 59 56 58 61 62 63 64 65 65 65 66 67 67
55 54 55 54 55 55 55 55 55 55 55 55 55 55 55 55 55 55 55 55 55 55 55 55 55 55 55 55 54 53 34 -1 23 24 65 74 71 66 63 66 69 46 38 37 37 40 43 43 43 44 44 47 53 53 53 62 63 59 59 60 61 63 63 63 63 64 66 64 64 64 66 66 64 62 65 64 61 60 64 63 64 65 65 66 66 66 66 66
55 55 55 55 55 55 55 55 55 55 55 55 55 55 55 55 55 54 55 55 55 54 55 55 55 55 54 56 52 48 20 13 32 27 61 74 72 66 64 67 69 43 36 34 35 38 41 40 43 43 44 45 45 51 52 62 63 59 56 58 61 64 64 64 65 66 66 65 65 67 67 65 61 59 65 64 65 63 64 64 64 65 66 66 65 66 66 66
55 55 55 55 55 55 55 55 55 55 55 55 55 55 55 55 55 55 55 55 54 54 55 55 55 54 55 52 50 40 33 24 23 31 73 71 67 63 66 60 53 42 34 32 33 35 40 41 42 43 44 47 45 46 47 58 62 59 57 56 63 64 64 65 65 65 65 66 67 66 65 65 64 63 65 64 64 63 64 65 65 65 65 65 65 65 66 66
55 55 55 55 55 55 55 55 55 55 55 55 55 55 55 55 55 55 55 54 54 54 54 55 54 54 54 52 42 21 11 25 33 54 65 62 62 64 59 55 47 38 32 31 31 35 39 37 42 45 43 43 45 44 44 54 55 60 58 57 63 64 65 66 65 65 66 66 66 64 64 66 66 65 63 65 65 64 64 64 64 65 65 65 65 65 66 66
55 55 55 55 55 55 55 55 55 55 55 55 55 55 55 55 54 54 55 55 55 54 54 55 55 55 51 49 26 11 12 21 61 63 62 60 60 59 56 54 43 37 31 29 29 37 38 36 41 41 42 43 44 42 41 51 42 59 57 60 63 64 65 65 64 66 66 65 66 63 64 64 67 67 59 66 66 64 63 63 64 64 64 64 64 65 65 65
55 55 55 55 55 55 55 55 55 55 55 55 55 54 54 55 54 55 55 55 55 55 55 55 54 55 51 50 4 3 5 56 57 61 61 59 54 48 51 49 43 35 32 29 26 34 35 38 40 41 42 41 40 39 41 50 48 57 61 63 64 64 64 65 65 65 65 64 66 64 64 65 66 66 61 64 66 64 63 63 63 63 64 64 64 65 65 65
55 55 55 55 55 55 55 55 55 55 55 55 54 54 54 54 54 54 55 55 55 55 55 56 55 54 52 46 33 6 19 53 49 57 60 57 51 47 44 51 41 35 30 28 27 27 29 37 37 41 40 39 39 39 30 36 37 60 62 61 62 63 63 63 63 64 65 63 66 64 62 61 62 62 65 65 66 64 63 63 63 63 63 64 64 65 65 65
55 55 55 55 55 55 55 55 55 55 55 54 54 54 54 54 54 54 54 55 56 56 56 55 54 53 48 15 23 35 34 33 31 45 55 50 46 43 40 44 40 29 29 28 27 26 26 35 37 38 38 39 37 36 35 35 30 61 61 61 60 59 58 62 63 64 64 64 66 65 54 58 61 64 65 66 65 64 63 62 63 63 63 64 64 64 65 65
55 55 55 55 55 55 55 55 55 55 54 54 54 54 54 54 54 54 55 55 57 57 53 55 54 52 41 13 16 31 33 35 40 35 53 53 44 43 41 37 35 31 29 23 26 24 24 32 35 36 38 36 35 38 37 33 55 58 60 59 58 57 56 62 62 62 62 65 65 64 54 57 61 64 66 66 65 62 61 62 62 62 63 63 63 64 64 64
55 55 55 55 55 55 55 55 55 55 54 54 54 54 54 53 54 55 56 56 56 57 55 56 54 49 40 32 34 37 54 52 49 45 45 49 44 39 42 36 35 32 28 26 25 37 26 32 34 35 33 41 38 37 33 42 57 59 57 54 56 55 57 61 62 62 60 62 65 61 53 56 60 64 66 66 65 62 61 61 62 62 62 63 63 63 63 64
56 56 56 55 55 55 55 55 55 55 54 54 54 53 53 53 55 55 57 58 56 56 55 49 52 50 39 35 32 48 46 39 37 46 44 47 44 38 40 34 33 31 31 30 27 35 30 33 31 35 36 37 36 34 41 54 54 54 53 53 55 54 55 58 60 62 62 62 63 62 54 58 59 65 66 67 65 62 60 61 61 61 62 62 63 63 63 63
55 55 55 55 55 55 55 55 55 55 54 54 53 53 53 54 55 56 59 57 56 56 53 49 50 53 24 26 36 36 34 37 43 38 41 47 42 37 36 33 30 26 29 27 30 23 25 32 37 39 36 35 31 29 45 49 48 54 46 52 54 53 57 56 60 61 63 61 60 62 58 58 61 64 66 66 65 63 60 60 61 61 62 62 62 62 63 63
55 55 55 55 55 55 55 55 55 54 54 53 52 53 51 56 57 58 57 56 56 55 54 53 50 44 32 33 30 31 35 37 38 36 39 42 39 34 32 30 27 24 24 25 34 20 30 28 32 32 27 29 27 27 45 49 51 53 46 52 52 55 56 57 57 59 61 62 59 60 58 59 61 64 65 65 65 64 60 60 60 61 61 62 62 62 62 62
55 55 55 55 55 55 55 55 55 54 53 52 54 56 55 56 55 53 52 53 42 39 27 38 39 27 22 26 30 33 34 37 38 38 32 41 39 30 37 28 25 23 24 26 28 27 34 30 30 31 30 25 24 25 29 36 47 47 50 51 53 53 55 56 58 60 61 61 60 58 57 57 60 62 64 65 65 64 62 61 61 61 61 61 61 61 61 61
55 55 55 55 55 55 55 55 54 53 52 50 47 52 48 33 30 29 49 48 42 36 29 28 37 33 33 32 31 33 35 38 36 36 33 45 33 27 27 29 30 30 25 21 28 27 31 29 27 28 30 27 25 24 25 26 26 32 49 52 53 52 54 58 60 60 62 60 59 59 58 57 59 62 63 64 65 64 63 62 60 60 61 61 61 61 61 61
55 55 55 55 55 55 55 54 53 53 52 50 48 36 32 32 29 27 28 39 46 43 37 35 35 34 30 32 34 37 32 32 35 33 29 45 29 27 28 28 27 28 27 28 28 39 32 31 30 27 31 27 25 24 24 23 20 21 41 51 51 52 52 56 59 60 61 59 58 60 58 58 60 62 63 64 64 63 62 61 60 60 60 61 60 60 60 60
55 55 55 55 54 54 54 53 53 52 51 48 45 36 33 31 35 33 30 28 29 42 42 39 40 37 38 38 37 38 38 35 30 30 30 32 28 28 28 26 27 25 29 30 29 29 29 28 29 29 27 26 25 24 24 23 20 19 19 40 51 51 57 59 60 60 61 58 57 58 57 58 61 61 63 63 63 63 64 62 61 60 61 60 60 60 60 59
55 55 55 55 54 54 53 53 52 51 49 44 39 38 38 38 39 36 33 28 28 33 41 40 37 38 37 39 41 39 37 33 26 29 33 33 30 30 28 26 27 28 29 29 28 28 30 27 28 27 26 23 23 20 19 17 17 16 19 40 48 52 54 53 58 59 59 58 58 58 58 58 61 62 62 63 64 64 65 64 63 62 62 60 60 60 60 59
55 55 55 54 54 53 53 52 49 50 48 42 40 39 39 40 37 35 31 30 30 33 31 31 33 34 32 25 32 36 28 27 29 28 47 32 30 33 29 28 27 28 26 29 28 27 28 27 29 27 24 23 22 20 18 18 18 15 17 22 45 54 54 56 57 57 58 59 59 58 57 57 59 59 60 62 64 64 64 65 64 65 65 64 62 60 60 59
55 55 55 54 53 53 51 51 44 46 45 44 42 43 42 43 42 35 34 32 29 29 34 28 29 27 27 24 31 26 25 29 29 31 44 32 29 29 29 31 28 27 28 29 28 28 27 28 28 26 25 23 22 20 18 18 18 13 13 15 47 55 55 57 56 55 56 55 57 56 51 52 58 59 59 61 62 62 64 63 63 63 64 64 61 59 60 60
55 55 54 54 54 52 51 41 42 43 41 33 38 40 41 41 38 37 35 27 16 18 14 18 17 17 20 15 27 23 24 23 28 31 37 32 42 29 30 27 30 26 27 27 27 27 28 28 26 26 26 24 23 22 22 18 15 16 17 13 49 55 57 56 55 54 52 51 56 54 48 46 54 57 58 60 61 61 63 62 62 63 64 63 61 60 60 59
55 55 54 53 53 51 35 30 41 43 30 31 38 42 40 41 45 37 32 23 16 16 13 15 9 14 19 16 25 23 20 22 23 33 34 45 31 37 27 26 27 31 29 29 29 26 27 26 25 25 25 24 23 23 22 16 13 14 14 12 51 55 56 56 55 54 52 56 56 55 48 45 48 53 59 59 60 60 61 62 62 62 62 63 62 60 62 59
55 54 53 52 51 51 41 46 44 37 33 31 43 41 41 43 41 36 26 14 15 18 14 13 11 19 17 17 20 18 19 21 20 24 35 35 35 30 27 27 25 25 29 27 24 27 25 25 25 24 25 23 23 24 24 15 15 16 17 42 53 55 56 56 55 51 54 54 52 54 51 45 45 49 57 58 58 59 60 61 61 62 62 62 62 61 62 62
54 53 53 52 51 50 51 48 44 39 39 42 43 41 41 43 36 31 24 12 18 19 17 15 18 17 18 16 15 17 16 21 15 17 25 33 32 31 29 29 26 27 29 26 24 25 26 24 24 24 23 22 23 24 18 16 17 19 22 51 53 55 54 54 51 51 51 48 48 52 52 43 41 53 56 58 57 57 59 60 61 62 61 62 62 61 62 65
54 53 53 52 49 49 50 50 46 44 46 44 42 42 44 38 30 27 21 12 19 16 17 16 14 12 16 13 13 15 15 15 19 29 30 31 30 29 29 31 28 28 28 26 27 26 26 43 42 23 22 23 23 22 19 17 20 27 47 50 50 50 50 50 49 51 48 43 45 52 52 44 39 50 55 55 55 56 58 60 62 63 62 62 62 61 62 65
53 52 52 51 47 46 46 31 34 45 45 44 43 40 35 32 33 23 15 14 22 19 17 16 17 15 15 13 11 13 16 18 17 30 28 28 28 29 29 27 28 26 25 26 24 24 23 23 24 29 33 25 23 23 23 19 19 21 37 48 49 47 50 46 47 49 44 43 45 52 53 48 41 42 55 57 58 58 58 60 61 62 62 61 62 61 62 64
51 51 51 50 49 52 36 26 33 42 44 44 43 34 32 25 21 18 17 24 22 16 16 16 18 14 13 14 13 13 13 16 21 27 26 28 27 28 27 26 27 24 26 24 25 19 17 20 21 22 43 21 22 21 20 20 18 20 46 48 45 39 44 42 43 42 41 42 42 47 51 48 48 45 51 56 57 58 59 61 62 62 63 62 61 61 62 65
51 51 50 51 52 49 49 43 47 46 45 45 37 32 24 22 16 22 24 22 19 18 16 19 18 15 14 17 18 19 17 14 19 20 22 19 26 22 25 26 27 26 24 29 20 16 16 19 21 21 22 31 20 18 18 16 15 22 42 45 42 39 40 38 38 38 37 40 42 50 51 47 47 46 51 52 54 58 59 60 62 62 63 63 61 61 64 65
50 50 49 50 51 50 50 52 49 47 44 46 29 28 23 18 19 51 33 24 16 19 22 21 19 20 18 17 19 20 19 22 24 20 18 19 23 27 23 19 20 17 22 27 20 16 17 16 18 21 19 25 19 19 17 17 15 15 38 44 43 43 41 37 37 37 38 39 44 49 46 43 43 44 52 53 54 57 59 60 61 61 63 64 62 64 66 66
50 49 48 49 51 52 51 50 49 49 42 33 29 26 20 19 24 21 22 21 18 20 21 22 21 20 19 20 20 21 19 21 24 21 21 17 17 21 25 16 18 19 23 19 23 27 18 20 23 23 26 23 19 20 19 16 15 16 31 44 44 43 44 39 39 39 37 42 44 46 43 46 45 52 55 57 56 57 60 60 62 62 64 65 64 66 66 66
48 47 48 47 51 49 51 51 49 45 35 31 30 26 23 23 21 24 18 20 19 21 21 19 20 19 20 19 23 20 21 24 26 34 34 19 19 20 20 19 20 19 18 18 25 20 26 20 21 24 25 24 21 24 21 17 15 21 33 34 37 44 41 38 42 37 42 41 42 46 45 48 50 52 54 58 58 58 59 60 61 62 63 63 63 65 66 66
49 49 41 45 46 51 50 49 47 41 38 33 29 25 28 34 25 23 46 19 19 22 22 19 20 20 20 19 20 20 20 22 23 37 32 23 18 19 19 17 20 19 20 19 19 22 18 18 20 22 20 22 24 21 21 21 21 24 24 27 30 31 35 37 34 34 36 34 37 45 45 45 44 43 53 57 58 59 59 60 61 62 62 62 63 64 65 66
49 49 53 52 49 47 48 46 40 37 36 35 31 43 38 25 28 25 23 19 19 24 28 25 22 22 22 21 18 20 20 22 22 29 25 23 17 20 19 16 18 19 20 21 20 24 20 18 19 21 22 22 27 24 23 26 27 21 19 24 25 30 32 30 36 33 34 34 37 42 45 46 44 45 51 55 57 59 60 61 61 61 62 63 63 63 64 66
49 38 34 37 43 46 46 45 38 35 35 30 31 28 43 35 33 23 22 19 22 23 21 22 22 25 24 22 22 21 20 19 23 31 25 23 20 22 17 21 19 19 22 23 23 29 26 17 22 23 21 22 25 24 22 22 26 27 24 22 28 27 29 26 30 35 37 35 38 39 42 41 47 47 55 56 57 59 61 61 61 62 63 63 63 64 64 65
38 34 33 37 39 46 49 41 35 33 32 24 27 34 31 27 27 25 20 22 20 19 23 25 25 23 25 24 25 19 21 23 24 25 24 23 19 24 18 20 17 17 24 30 28 30 23 26 19 21 23 22 21 26 22 22 22 24 21 25 23 27 30 25 28 40 37 39 36 37 37 42 45 51 55 56 57 60 61 62 62 63 63 63 64 64 65 65
45 36 35 38 43 47 37 33 30 31 29 31 34 30 32 26 22 18 19 21 20 22 20 24 27 23 24 24 22 23 23 25 23 22 25 19 17 18 21 22 21 18 23 24 23 28 28 28 25 28 18 18 19 23 21 23 23 23 21 21 20 20 23 26 24 33 43 39 37 36 35 40 45 56 56 56 58 60 61 61 62 62 63 63 64 64 65 65
32 29 29 38 43 34 31 28 29 34 29 28 24 30 24 48 18 16 19 21 22 19 24 25 27 26 28 26 23 24 26 29 28 25 24 16 19 18 23 24 28 21 22 23 23 25 30 31 30 26 21 20 22 24 29 25 22 21 15 14 22 24 25 26 25 30 42 43 44 40 38 42 51 56 57 57 58 58 59 60 61 62 62 63 64 64 64 65
36 31 37 45 42 31 27 26 43 35 26 29 32 17 17 18 18 18 22 23 24 22 20 22 25 25 27 27 27 29 28 27 28 23 23 24 24 24 24 26 32 33 22 26 30 29 47 32 30 35 35 33 26 24 27 23 21 16 18 18 14 14 20 24 28 35 42 42 40 39 38 42 51 57 57 57 57 57 58 60 59 59 60 61 61 61 62 64
40 40 41 46 38 29 25 23 25 22 31 31 19 17 20 16 18 20 23 24 27 25 21 25 23 27 31 30 31 31 32 24 28 28 25 28 26 26 27 27 31 31 39 36 31 29 30 32 32 30 20 20 21 28 21 26 27 27 22 23 22 25 32 31 40 43 42 43 42 37 34 42 50 56 56 56 56 56 57 58 58 58 59 59 60 60 61 62
43 41 44 47 45 26 24 23 23 21 36 23 20 18 17 16 18 18 25 26 27 30 28 29 28 25 29 32 33 33 32 28 29 29 26 30 30 34 26 28 28 31 41 47 49 48 31 35 35 27 21 16 16 19 21 24 25 27 29 24 27 38 40 39 38 39 35 41 41 37 38 46 54 55 55 56 56 56 56 57 57 58 58 58 58 60 60 61
38 24 31 36 37 21 30 30 22 21 26 26 21 19 20 18 17 20 23 25 29 31 31 33 33 32 32 32 32 31 30 31 28 29 33 30 31 31 28 30 26 35 49 46 48 44 37 39 37 32 29 26 27 30 32 42 23 24 26 26 27 24 38 37 39 35 33 40 42 41 44 49 52 53 54 55 56 56 56 56 56 56 56 56 57 58 59 59
41 34 33 35 39 23 22 22 28 24 18 28 21 22 24 24 21 22 26 26 26 30 30 28 30 32 32 30 33 31 33 32 30 26 28 32 31 32 32 32 24 39 50 40 43 41 41 38 33 36 33 31 29 33 30 40 27 30 30 30 33 36 35 37 33 30 40 42 37 41 48 50 51 53 54 54 55 56 56 55 55 54 54 55 56 57 58 57
33 37 41 44 20 22 25 25 34 28 28 26 23 24 25 24 25 28 25 28 30 31 29 29 24 27 35 33 33 28 30 32 30 26 30 29 34 27 24 25 23 35 37 25 36 38 38 36 41 37 27 26 25 25 26 31 30 31 31 31 34 41 40 36 40 38 42 36 36 42 49 49 52 53 54 55 55 55 55 55 54 53 53 53 54 56 56 56
41 42 41 46 34 33 28 36 40 31 38 33 36 28 26 24 23 24 25 27 30 30 31 26 25 25 27 34 30 26 28 24 22 29 26 26 28 31 25 27 28 27 28 28 30 43 35 38 44 36 31 25 26 27 25 30 32 32 31 31 32 42 47 47 48 48 46 42 41 47 49 49 52 53 54 54 55 55 55 54 53 52 52 53 52 53 55 54
40 42 43 46 47 45 46 38 33 26 21 34 20 22 27 24 23 23 23 25 27 28 32 26 27 28 27 26 32 23 25 27 24 22 27 27 26 29 29 28 23 26 29 28 32 33 32 35 46 41 32 27 27 30 26 27 32 31 31 31 33 35 39 45 49 49 50 48 49 50 49 49 52 54 54 55 55 54 54 53 52 51 51 50 50 51 51 52
48 46 46 44 40 42 46 40 30 31 21 22 22 25 33 25 23 23 22 25 28 28 31 27 27 31 30 27 27 25 26 30 30 25 26 25 23 25 25 27 27 26 30 28 31 34 33 30 40 40 34 29 28 30 28 30 31 31 30 31 33 36 39 37 43 46 46 46 47 48 47 48 52 54 54 54 54 54 53 52 51 51 49 49 49 49 49 50
49 49 49 45 40 50 40 42 33 23 18 22 29 29 29 23 24 23 24 24 33 33 31 30 32 28 26 26 25 26 24 26 23 23 23 21 21 30 33 27 27 26 25 27 32 32 36 33 32 34 27 30 30 31 29 31 30 31 29 31 34 39 44 40 47 48 49 49 47 46 45 49 53 54 53 53 53 53 52 51 51 50 49 48 48 48 48 48